Other Public Products
Issued by NWS Grand Forks, ND

Home | Current Version | Previous Version | Graphics & Text | Print | Product List | Glossary On
Versions: 1 2 3 4 5 6 7 8 9 10 11 12 13 14 15 16 17 18 19 20 21 22 23 24 25 26 27 28 29 30 31 32 33 34 35 36 37 38 39 40 41 42 43 44 45 46 47 48 49 50
000
FPUS83 KFGF 140310
OPUFGF
PRAIRIE TO PINES WEATHER ROUNDUP
NATIONAL WEATHER SERVICE EASTERN NORTH DAKOTA/GRAND FORKS ND
900 PM CST WED DEC 13 2017

 **SATELLITE DATA USED TO AUGMENT SKY COVER AT AUTOMATED STATIONS**
 *****  WEATHER ACROSS EASTERN NORTH DAKOTA  *****

CITY           SKY/WX    TMP DP  RH WIND       PRES   REMARKS
GRAND FORKS    FLURRIES  19  16  88 N8        29.99R WCI   9
GRND FORKS AFB FLURRIES  18  13  80 N12       29.99S WCI   6
GRND FORKS NWS   N/A     18 N/A N/A N5          N/A  WCI  11
BUXTON         NOT AVBL
DEVILS LAKE    CLOUDY    21  18  88 N10       29.96S WCI  10
FARGO          CLOUDY    20  15  81 N10       29.98S WCI   9
WAHPETON ARPT    N/A     21  14  73 N13       29.98S WCI   9
$$

 *****  WEATHER ACROSS CENTRAL AND WESTERN NORTH DAKOTA  *****

CITY           SKY/WX    TMP DP  RH WIND       PRES   REMARKS
JAMESTOWN      CLOUDY    26  24  92 NE8       29.95S WCI  18
BISMARCK       CLOUDY    34  25  69 NW10      30.01S
MINOT          CLOUDY    33  26  75 W12       29.95F WCI  24
MINOT AFB      CLOUDY    31  25  78 W7        29.94F WCI  25
GARRISON         N/A     28  24  85 NW8       29.97F WCI  20
WILLISTON      MOCLDY    33  27  78 W7        30.01F
DICKINSON      MOCLDY    31  24  75 W10       29.99S WCI  22
HETTINGER      FAIR      31  23  72 NW12      30.03S WCI  22
$$

 *****  OTHER OBSERVATIONS NORTHEAST NORTH DAKOTA  *****

CITY           SKY/WX    TMP DP  RH WIND       PRES   REMARKS
WALHALLA       FAIR      18  18 100 NE7       29.97F WCI   8
LANGDON        CLOUDY    18  18 100 N13       29.92F WCI   4
CAVALIER       FLURRIES  16  12  86 N9        29.99F WCI   4
GRAFTON        CLOUDY    18  14  86 N13       30.02S WCI   4
CANDO          CLOUDY    21  21 100 NE5       29.96F WCI  15
FORT TOTTEN      N/A     23  20  87 N5        29.95S WCI  17
ROLLA          CLOUDY    23  21  93 CALM      29.93S
RUGBY          CLOUDY    28  27  93 N3        29.94F
 ***** THE ABOVE OBSERVATIONS ARE NON NWS ARE NOT QUALITY
        CONTROLLED AND MAY MIS-REPORT RAIN FOR SNOW...
$$

 *****  OTHER OBSERVATIONS SOUTHEAST NORTH DAKOTA *****

CITY           SKY/WX    TMP DP  RH WIND       PRES   REMARKS
COOPERSTOWN    CLOUDY    21  19  93 N12       29.96S WCI   9
VALLEY CITY    CLOUDY    21  21 100 N9        29.98R WCI  11
OAKES            N/A     27  27 100 N8        29.97S WCI  18
GWINNER          N/A     25  21  86 N13       29.97S WCI  13
SHEYENNE NWR     N/A     21  17  83 NE7       29.95S WCI  12
BUFFALO        NOT AVBL
WYNDMERE       NOT AVBL
 ***** THE ABOVE OBSERVATIONS ARE NON NWS ARE NOT QUALITY
       CONTROLLED AND MAY MIS-REPORT RAIN FOR SNOW...
$$

  *****  WEATHER ACROSS NORTHERN MINNESOTA  *****

CITY           SKY/WX    TMP DP  RH WIND       PRES   REMARKS
FLAG ISLAND    FAIR       3   0  85 CALM      29.94R
WARROAD        FAIR       3   0  85 W6        29.96R WCI  -8
ROSEAU         FAIR      12   9  85 NW5       29.96R WCI   4
HALLOCK        CLOUDY    18  14  86 NE6       29.99S WCI   9
THF RVR FALLS  FLURRIES  14  11  87 NW7       29.98R WCI   4
HALSTAD        NOT AVBL
FOSSTON        FLURRIES  12  10  92 N3        29.94S
BAUDETTE       CLOUDY     4   2  91 CALM      29.93S
WASKISH        CLOUDY    12  10  92 CALM      29.93S
CROOKSTON      FLURRIES  16  10  79 N12       30.01R WCI   3
$$
  *****  WEATHER ACROSS CENTRAL AND WEST MINNESOTA  *****

CITY           SKY/WX    TMP DP  RH WIND       PRES   REMARKS
BEMIDJI        FLURRIES  13   9  84 N5        29.92R WCI   5
PARK RAPIDS    CLOUDY    15  10  80 NE5       29.92R WCI   8
WADENA         FLURRIES  16  12  86 N6        29.92S WCI   7
DETROIT LAKES  FLURRIES  18  14  86 N5        29.94R WCI  11
MOORHEAD       MIX PCPN  18  12  79 N10       29.99S WCI   6
FERGUS FALLS   CLOUDY    19  14  79 N7        29.99R WCI  10
ELBOW LAKE     CLOUDY    20  16  84 N7        29.96R WCI  11
MORRIS MN      CLOUDY    21  16  79 N13       29.95R WCI   9
STAPLES        CLOUDY    16  10  79 N6        29.93R WCI   7
WHEATON        CLOUDY    21  16  79 N10       30.00R WCI  10
$$
  *****  WEATHER ELSEWHERE ACROSS MINNESOTA  *****

CITY           SKY/WX    TMP DP  RH WIND       PRES   REMARKS
DULUTH         FAIR      13  11  92 N6        29.88R WCI   4
INTRNTL FALLS  CLOUDY    15  10  80 NW5       29.91S WCI   8
ELY            CLOUDY     9   7  92 CALM      29.89R
CLOQUET        CLOUDY    16  12  86 NW7       29.89R WCI   6
BRAINERD       CLOUDY    18  12  77 N8        29.92R WCI   8
HIBBING        CLOUDY    15  11  83 NE6       29.89R WCI   6
ALEXANDRIA     CLOUDY    19  13  77 N8        29.93R WCI   9
SAINT CLOUD    FAIR      16  11  80 N6        29.92R WCI   7
MINNEAPOLIS    FAIR      20  15  81 N9        29.91S WCI   9
$$

  *****  WEATHER ACROSS SOUTH DAKOTA  *****

CITY           SKY/WX    TMP DP  RH WIND       PRES   REMARKS
SIOUX FALLS    CLOUDY    33  28  81 NW14      29.94R WCI  23
BROOKINGS      CLOUDY    27  24  89 N12       29.92S WCI  17
WATERTOWN      CLOUDY    27  25  92 N12       29.92R WCI  17
HURON          CLOUDY    35  24  64 N13       29.98R
SISSETON         N/A     24  21  88 N10       29.96S WCI  14
ABERDEEN       CLOUDY    33  26  75 NW9       29.97R
MITCHELL       CLOUDY    36  24  62 N15       29.99R
PIERRE         FAIR      31  26  82 N9        30.02R WCI  23
MOBRIDGE       FAIR      28  24  85 NW3       29.98S
RAPID CITY     FAIR      39  24  55 NW20      30.06S
$$

  *****  SOME WEATHER IN NEARBY STATES *****

CITY           SKY/WX    TMP DP  RH WIND       PRES   REMARKS
GLASGOW MT     FAIR      29  23  78 W8        30.11R WCI  21
GREAT FALLS MT CLOUDY    32  26  78 SW10      30.32S WCI  24
CHEYENNE WY    CLOUDY    36  15  42 N9        30.10R
SCOTTSBLUFF NE CLOUDY    40  19  43 NW10      30.10R
OMAHA NE       CLOUDY    40  25  55 NW22      29.94R
DES MOINES IA  CLOUDY    35  21  56 NW18G25   29.88R WCI  24
DAVENPORT IA   CLOUDY    26  16  65 NW17      29.82R WCI  13
CHICAGO IL     FLURRIES  29  20  69 NW21G26   29.63R WCI  16
EAU CLAIRE WI  FAIR      14  10  84 N3        29.89R
LA CROSSE WI   CLOUDY    22  14  71 N14       29.86R WCI   9
$$

  *****  SOME NATIONAL WEATHER *****

CITY           SKY/WX    TMP DP  RH WIND       PRES   REMARKS
LA GUARDIA NY  CLOUDY    28   6  39 W16       29.68R WCI  16
RALEIGH NC     MOCLDY    39  17  41 SW16      29.76R
ATLANTA GA     FAIR      43  20  39 W8        29.86R
NEW ORLEANS LA MOCLDY    50  42  74 S6        30.02F
OKLAHOMA CITY  FAIR      48  20  32 NW5       29.93R
ALBUQUERQUE NM FAIR      38   3  23 SE6       30.01F
SALT LAKE CITY CLOUDY    29  26  89 NW10      30.25R FOG     WCI  20
LOS ANGELES CA FAIR      65  42  43 S3        29.94F
BOISE ID       CLOUDY    25  22  88 NW8       30.40R WCI  16
SEATTLE WA     FAIR      43  37  79 N6        30.36F
$$

*** WEATHER ACROSS MANITOBA...SASKATCHEWAN AND ONTARIO ***
                ***ONTARIO***

CITY           SKY/WX    TMP DP  RH WIND       PRES   REMARKS
GERALDTON      FLURRIES  -6  -9  84 N7        29.85F WCI -20
THUNDER BAY    CLEAR     -2  -6  84 W7        29.93S WCI -16
SIOUX LOOKOUT  PTCLDY   -13 -18  77 VRB2      29.89S
TORONTO        LGT SNOW  14   9  79 NE7       29.59F WCI   4
BIG TROUT LK   CLEAR    -22 -27  76 W3        29.92F
PICKLE LAKE    NOT AVBL
DRYDEN         CLEAR      0  -4  85 NW2       29.89S
KENORA         CLEAR      9   5  85 NW5       29.91R WCI   0
$$
                *** MANITOBA***

CITY           SKY/WX    TMP DP  RH WIND       PRES   REMARKS
BRANDON        CLOUDY    18  16  93 SE6       29.95F WCI   9
DAUPHIN        FLURRIES  21  19  93 E2        29.96F
ISLAND LAKE    CLOUDY     3  -4  72 CALM      29.93F
PILOT MOUND      N/A     18  16  93 N7          N/A  WCI   8
THE PAS        LGT SNOW  18  12  79 N9        29.99S VSB 1   WCI   6
THOMPSON       FLURRIES   0  -4  85 NW5       29.95S WCI -10
WINNIPEG       FLURRIES  14  10  85 NW3       29.97F
LYNN LAKE      CLEAR      0  -2  92 NW7       30.00R WCI -13
CHURCHILL      LGT SNOW  -8 -11  84 N17       30.04R WCI -31
GILLAM         FLURRIES   0  -6  78 W3        29.95F
$$
                ***SASKATCHEWAN***

CITY           SKY/WX    TMP DP  RH WIND       PRES   REMARKS
ESTEVAN        PTCLDY    30  28  93 W12       29.95S WCI  21
KINDERSLEY     PTCLDY    32  27  80 NW16G24   30.15R WCI  21
LLOYDMINSTER   CLOUDY    34  27  75 NW12      30.16R
PRINCE ALBERT  FLURRIES  34  28  80 N14       30.06R WCI  24
REGINA         PTCLDY    32  28  86 NW16G22   29.97S WCI  21
YORKTON        FLURRIES  30  27  86 W5        29.91F



USA.gov is the U.S. government's official web portal to all federal, state and local government web resources and services.